Location: Helion Bumpstead
(52.0500°N, 0.4000°E)
Time: 21:47:27
(UTC+00:00)

SL-16 R/B - Pass Details

Date: 15 November 2025
Orbit: 841 x 844 km, 71.0° (Epoch: 06 December)

Event Time Altitude Azimuth Distance (km) Brightness Sun altitude
Exits shadow 04:08:34 16° 353° (N) 2,104 4.2 -29.0°
Drops below altitude 10° 04:10:41 10° 14° (NNE) 2,478 4.8 -28.6°
Sets 04:14:03 0° 34° (NE) 3,416 5.9 -28.1°
